Starlink 32614

operational
NORAD ID: 62428 Int'l Des: 2024-249 Owner: SPXS Country: US Constellation: starlink
LEOCIRCULAR

Starlink 32614について

説明を読み込み中...

リアルタイム位置

3D地球を読み込み中...

次回通過

高度履歴

Altitude vs Time

uPlot chart will show altitude changes over time

軌道要素

1 62428U 24249V 25258.20312683 .00039760 00000-0 14446-2 0 9996
2 62428 42.9999 233.0496 0001123 268.7435 91.3288 15.27624814 40886
Epoch: Sep 15, 2025 • Age: 13 hours

現在のステータス

高度 486.0 km
速度 7.63 km/s
衛星直下点 40.19°N, 82.2°E
打ち上げ日 Dec 23, 2024
運用期間 0.7 years
タイプ internet

技術仕様

分類 Payload
質量 730.00 kg
乾燥質量 700.00 kg
総質量 730.00 kg
長さ 0.30 m
直径 4.10 m
スパン 29.00 m
形状 Box + pan
製造者 SPXS
バスタイプ Starlink V2M
フェーズステータス In Orbit
所有者/国 SPXS/US

大規模コンステレーション

Loading constellations...